Location: Newark
(55.7083°N, 13.1992°E)
Time: 17:19:27
(UTC+00:00)

SR - Visible Passes

Search period start: 26 February 2020 00:00
Search period end: 07 March 2020 00:00
Orbit: 575 x 880 km, 66.7° (Epoch: 25 February)

Date Brightness Start Highest point End Pass type
(mag) Time Alt. Az. Time Alt. Az. Time Alt. Az.
26 Feb ? 18:04:01 10° NW 18:08:49 27° N 18:12:42 13° NE visible
26 Feb ? 19:47:03 10° NW 19:52:06 39° NNE 19:52:06 39° NNE visible
26 Feb ? 21:29:24 10° NW 21:31:30 23° NW 21:31:30 23° NW visible
27 Feb ? 17:13:42 10° WNW 17:18:35 27° N 17:23:13 10° NE visible
27 Feb ? 18:57:12 10° NW 19:02:12 31° NNE 19:03:47 27° NE visible
27 Feb ? 20:39:38 10° NW 20:43:11 40° NNW 20:43:11 40° NNW visible
27 Feb ? 22:22:17 10° NW 22:22:36 11° WNW 22:22:36 11° WNW visible
28 Feb ? 18:07:11 10° NW 18:12:01 28° N 18:15:29 15° ENE visible
28 Feb ? 19:49:53 10° NW 19:54:53 49° NNE 19:54:53 49° NNE visible
28 Feb ? 21:32:16 10° NW 21:34:18 22° WNW 21:34:18 22° WNW visible
29 Feb ? 17:17:00 10° NW 17:21:47 26° N 17:26:17 10° ENE visible
29 Feb ? 19:00:06 10° NW 19:05:16 38° NNE 19:06:36 33° ENE visible
29 Feb ? 20:42:26 10° NW 20:46:00 41° NW 20:46:00 41° NW visible
01 Mar ? 18:10:13 10° NW 18:15:10 31° NNE 18:18:20 17° ENE visible
01 Mar ? 19:52:40 10° NW 19:57:45 67° N 19:57:45 67° N visible
01 Mar ? 21:35:17 10° NW 21:37:09 19° WNW 21:37:09 19° WNW visible
02 Mar ? 17:20:11 10° NW 17:24:58 27° N 17:29:28 10° ENE visible
02 Mar ? 19:02:55 10° NW 19:08:16 49° NE 19:09:30 40° ENE visible
02 Mar ? 20:45:18 10° NW 20:48:55 37° WNW 20:48:55 37° WNW visible
03 Mar ? 18:13:07 10° NW 18:18:15 37° NNE 18:21:17 20° E visible
03 Mar ? 19:55:28 10° NW 20:00:42 79° W 20:00:42 79° W visible
03 Mar ? 21:38:38 10° WNW 21:40:07 15° W 21:40:07 15° W visible
04 Mar ? 17:23:14 10° NW 17:28:08 30° NNE 17:32:42 10° ENE visible
04 Mar ? 19:05:42 10° NW 19:11:09 68° NE 19:12:31 47° ESE visible
04 Mar ? 20:48:17 10° NW 20:51:56 29° W 20:51:56 29° W visible
05 Mar ? 18:15:57 10° NW 18:21:15 47° NNE 18:24:22 21° E visible
05 Mar ? 19:58:19 10° NW 20:03:28 52° WSW 20:03:47 51° SW visible
06 Mar ? 17:26:09 10° NW 17:31:14 36° NNE 17:35:54 10° E visible
06 Mar ? 19:08:30 10° NW 19:13:54 83° SW 19:15:41 41° SE visible
06 Mar ? 20:51:35 10° WNW 20:55:06 19° WSW 20:55:06 19° WSW visible
